[[{"header":{"parameterUnit":"m.s-1","parameterCategory":1,"la1":30.2991,"la2":30.254,"lo1":-89.0895,"lo2":-89.0444,"dy":0.0017,"dx":0.0017,"nx":28,"ny":28,"refTime":"2023-08-03T09:00:00:Z","depth":0,"parameterNumber":2,"parameterNumberName":"U-component_of_WINDS"},"data":[0,0,0,0,0,0,0,0,0,0,0,0,0,0,0,0,0,0,0,0,0,0,0,0,0,0,0,0,0,0,0,0,0,0,0,0,0,0,0,0,0,0,0,0,0,0,0,0,0,0,0,0,0,0,0,0,0,0,5.2692,5.2695,0,5.2913,5.2916,5.2918,5.2894,5.289,5.2887,5.2883,5.3111,5.312,5.3129,0,0,0,0,0,0,0,0,0,0,0,0,0,5.2247,5.2255,5.2692,5.2695,5.2698,5.2913,5.2916,5.2919,5.2894,5.289,5.2886,5.2882,5.3108,5.3119,5.313,0,0,0,0,0,0,0,0,0,0,0,0,0,5.2451,5.2258,5.2691,5.2711,5.2715,5.2912,5.2916,5.292,5.2895,5.289,5.2885,5.288,5.3104,5.3118,5.3131,5.3324,0,0,5.3174,5.318,0,0,0,0,0,0,0,0,5.244,5.2468,5.2706,5.271,5.2715,5.2871,5.2842,5.3055,5.2897,5.2827,5.2883,5.2877,5.3035,5.3054,5.3108,5.3334,5.3344,5.3175,5.3184,5.319,5.3194,0,0,0,0,0,0,0,5.2426,5.2458,5.278,5.2709,5.2715,5.2709,5.2732,5.2883,5.2958,5.2833,5.2831,5.2858,5.3037,5.3094,5.3113,5.3347,5.3175,5.3187,5.3196,5.3202,5.3739,5.3745,0,0,0,0,0,0,5.2407,5.2446,5.2773,5.2786,5.2562,5.2721,5.2747,5.2826,5.2956,5.2971,5.2862,5.2856,5.3073,5.3096,5.3121,5.3352,5.319,5.3203,5.3211,5.3734,5.3741,5.3747,0,0,0,0,0,0,5.2397,5.2436,5.2764,5.2616,5.2657,5.2734,5.2823,5.2833,5.289,5.2979,5.2992,5.2907,5.307,5.3101,5.3272,5.3359,5.3209,5.3222,5.3727,5.3736,5.3744,5.3816,0,0,0,0,0,0,5.2385,5.2433,5.2507,5.2618,5.2665,5.2912,5.2829,5.2841,5.2915,5.2909,5.3024,5.3038,5.3068,5.3252,5.3286,5.3376,5.3233,5.3719,5.3731,5.3741,5.3806,5.3827,5.3844,0,0,0,0,0,5.2369,5.2519,5.2511,5.255,5.276,5.2917,5.2944,5.2975,5.2922,5.2996,5.3053,5.3035,5.3345,5.327,5.3308,5.3403,5.3714,5.3727,5.374,5.3798,5.3823,5.3843,0,0,0,0,0,0,5.2417,5.2534,5.2526,5.2717,5.2807,5.2913,5.3008,5.3001,5.3108,5.3098,5.3132,5.3158,5.333,5.3385,5.3299,5.3594,5.3522,5.3543,5.3553,5.3577,5.3595,5.3577,5.3245,0,0,0,0,0,5.245,5.2569,5.2665,5.2824,5.2869,5.2931,5.3001,5.3017,5.3112,5.315,5.3219,5.3311,5.3429,5.3506,5.362,5.3815,5.3838,5.3899,5.3918,5.3932,5.395,5.4054,5.4081,5.3791,5.379,5.379,0,0,5.2519,5.2598,5.2671,5.2835,5.2907,5.3028,5.2963,5.3095,5.3184,5.317,5.3335,5.3389,5.3495,5.3678,5.3762,5.3728,5.4036,5.3949,5.396,5.397,5.407,5.4098,5.4122,5.3799,5.3798,5.3796,0,0,5.2706,5.2779,5.2918,5.2991,5.31,5.314,5.3173,5.328,5.3314,5.3481,5.3471,5.3579,5.3782,5.3857,5.3921,5.4135,5.4121,5.4171,5.4268,5.4369,5.4392,5.4412,5.4485,5.4512,5.4189,5.4189,5.419,0,5.2778,5.296,5.2991,5.3123,5.3194,5.3186,5.3326,5.3396,5.3537,5.3586,5.3546,5.3799,5.387,5.4069,5.4121,5.4174,5.4212,5.4157,5.4386,5.4407,5.4426,5.4496,5.4524,5.4194,5.4194,5.4193,5.4193,0,5.3042,5.3169,5.3268,5.3403,5.3486,5.3622,5.3671,5.3752,5.376,5.3804,5.3972,5.4057,5.4186,5.4235,5.4245,5.4435,5.441,5.4378,5.4305,5.4458,5.4525,5.4552,5.4202,5.42,5.4198,5.4197,0,0,5.3266,5.3414,5.345,5.351,5.3629,5.3727,5.3862,5.3987,5.4054,5.4152,5.4264,5.4436,5.4406,5.4479,5.4498,5.4587,5.4747,5.4543,5.4546,5.4576,5.4958,5.4979,5.501,5.4739,5.4745,5.4749,5.4948,0,5.3462,5.37,5.373,5.3941,5.4056,5.405,5.4166,5.4252,5.4296,5.44,5.4449,5.4569,5.4522,5.4566,5.4654,5.4708,5.4823,5.4695,5.4842,5.4847,5.4813,5.5045,5.5069,5.5253,5.4974,5.4979,5.4982,0,5.3724,5.3827,5.4048,5.4149,5.4198,5.4303,5.4419,5.452,5.4615,5.4641,5.4722,5.4729,5.4867,5.479,5.4979,5.4891,5.4953,5.4989,5.4997,5.501,5.4922,5.5062,5.5312,5.5338,5.5024,5.5021,5.5018,0,5.3861,5.4055,5.4212,5.4264,5.4386,5.4459,5.4514,5.4604,5.4677,5.4779,5.4826,5.4943,5.5007,5.5097,5.5134,5.5075,5.5321,5.5248,5.5344,5.5343,5.5394,5.539,5.5655,5.5439,5.5439,5.5438,5.5438,0,5.4076,5.4211,5.4275,5.4371,5.4521,5.4555,5.4703,5.4754,5.4835,5.494,5.4943,5.5041,5.5086,5.5192,5.5222,5.5373,5.5402,5.5426,5.5432,5.5424,5.5421,5.5463,5.545,5.5446,5.5444,5.5443,5.5441,0,5.4253,5.4302,5.4472,5.4573,5.4602,5.4708,5.4794,5.4887,5.493,5.5063,5.5096,5.5163,5.5287,5.5334,5.5486,5.5506,5.5679,5.5677,5.5646,5.5647,5.574,5.5729,5.604,5.6081,5.584,5.5843,5.5844,0,5.4386,5.4489,5.4601,5.4671,5.4728,5.4842,5.4915,5.4952,5.5029,5.5144,5.5223,5.5346,5.5446,5.5645,5.5707,5.5822,5.5821,5.5922,5.5838,5.5826,5.5818,5.581,5.5819,5.5936,5.5939,5.5941,5.5942,0,5.4615,5.4634,5.474,5.4854,5.4941,5.5034,5.5123,5.518,5.523,5.5316,5.5442,5.552,5.5674,5.5796,5.5914,5.5969,5.5964,5.5968,5.5996,5.5988,5.5965,5.5975,5.5685,5.596,5.5959,5.5957,5.5956,5.5956,5.4773,5.4863,5.4955,5.5072,5.5143,5.5226,5.5317,5.537,5.5476,5.5603,5.5619,5.5754,5.5845,5.6003,5.6064,5.6169,5.6142,5.6183,5.6193,5.6202,5.6207,5.595,5.6191,5.6191,5.619,5.619,5.619,0,5.4999,5.5058,5.5165,5.5289,5.5381,5.5368,5.5465,5.5543,5.5661,5.5747,5.5845,5.5989,5.6106,5.6177,5.6295,5.6365,5.6366,5.6395,5.6388,5.6401,5.6226,5.6188,5.6392,5.6392,5.6392,5.6392,5.6392,5.6392,5.5128,5.5279,5.5308,5.5493,5.5551,5.5682,5.5739,5.5814,5.5882,5.6042,5.614,5.6185,5.6264,5.6387,5.6494,5.6512,5.6554,5.6585,5.66,5.6435,5.6413,5.6393,5.6358,5.6594,5.6595,5.6765,5.6767,5.6768]},{"header":{"parameterUnit":"m.s-1","parameterCategory":1,"la1":30.2991,"la2":30.254,"lo1":-89.0895,"lo2":-89.0444,"dy":0.0017,"dx":0.0017,"nx":28,"ny":28,"refTime":"2023-08-03T09:00:00:Z","depth":0,"parameterNumber":3,"parameterNumberName":"V-component_of_WINDS"},"data":[0,0,0,0,0,0,0,0,0,0,0,0,0,0,0,0,0,0,0,0,0,0,0,0,0,0,0,0,0,0,0,0,0,0,0,0,0,0,0,0,0,0,0,0,0,0,0,0,0,0,0,0,0,0,0,0,0,0,1.7811,1.7811,0,1.7843,1.7843,1.7844,1.7809,1.7808,1.7807,1.7805,1.7838,1.784,1.7842,0,0,0,0,0,0,0,0,0,0,0,0,0,1.7716,1.7718,1.7811,1.7811,1.7811,1.7843,1.7843,1.7844,1.7809,1.7808,1.7806,1.7805,1.7837,1.784,1.7842,0,0,0,0,0,0,0,0,0,0,0,0,0,1.7754,1.7719,1.781,1.7798,1.7797,1.7843,1.7843,1.7844,1.781,1.7808,1.7806,1.7804,1.7836,1.7839,1.7843,1.7902,0,0,1.7852,1.7854,0,0,0,0,0,0,0,0,1.7752,1.7757,1.7799,1.7799,1.7798,1.782,1.7822,1.7863,1.781,1.7805,1.7805,1.7803,1.7834,1.7837,1.7847,1.7904,1.7905,1.7853,1.7854,1.7856,1.7857,0,0,0,0,0,0,0,1.7749,1.7756,1.7823,1.78,1.7799,1.779,1.7793,1.783,1.783,1.7805,1.7803,1.7807,1.7833,1.7844,1.7848,1.7905,1.7852,1.7855,1.7857,1.7858,1.801,1.8012,0,0,0,0,0,0,1.7748,1.7754,1.7822,1.7824,1.777,1.7793,1.7797,1.7815,1.783,1.783,1.7809,1.7805,1.784,1.7844,1.7849,1.7918,1.7856,1.7859,1.7861,1.8008,1.801,1.8013,0,0,0,0,0,0,1.7746,1.7755,1.7821,1.7788,1.7796,1.7797,1.7818,1.7817,1.7828,1.7832,1.7832,1.7821,1.7838,1.7844,1.7889,1.7919,1.786,1.7863,1.8005,1.8009,1.8012,1.8059,0,0,0,0,0,0,1.7744,1.7754,1.7778,1.7789,1.7798,1.7861,1.782,1.7819,1.7834,1.783,1.7843,1.7844,1.7837,1.7884,1.7892,1.7922,1.7865,1.8003,1.8007,1.8011,1.8054,1.8063,1.807,0,0,0,0,0,1.7741,1.779,1.7779,1.7787,1.7827,1.7863,1.7868,1.786,1.7836,1.7859,1.7862,1.7843,1.7914,1.7889,1.7897,1.7929,1.8001,1.8006,1.801,1.8051,1.8061,1.807,0,0,0,0,0,0,1.7782,1.7791,1.7779,1.7834,1.7848,1.7857,1.7886,1.7872,1.7893,1.7888,1.7877,1.788,1.7927,1.7932,1.7904,1.7986,1.7953,1.796,1.7981,1.7991,1.7999,1.7997,1.7868,0,0,0,0,0,1.7798,1.7826,1.7833,1.788,1.7888,1.7886,1.7901,1.7893,1.7907,1.7913,1.7919,1.7933,1.7958,1.7975,1.7998,1.8054,1.8056,1.808,1.8088,1.8095,1.8101,1.813,1.814,1.8028,1.8028,1.8028,0,0,1.783,1.7838,1.7858,1.7889,1.7899,1.7928,1.7891,1.7924,1.7945,1.7918,1.796,1.7964,1.7979,1.8029,1.8052,1.8035,1.8132,1.8101,1.8106,1.8109,1.8136,1.8146,1.8156,1.8032,1.8031,1.8031,0,0,1.7904,1.7914,1.7954,1.7964,1.7979,1.7977,1.7987,1.7998,1.8,1.8042,1.8021,1.8046,1.809,1.8101,1.8112,1.8188,1.8171,1.8196,1.8238,1.8266,1.8275,1.8282,1.8309,1.8318,1.8201,1.8202,1.8202,0,1.7943,1.7986,1.7976,1.801,1.8024,1.8,1.8039,1.805,1.8072,1.8082,1.8063,1.8116,1.8125,1.8176,1.8195,1.8205,1.8214,1.8194,1.8274,1.8282,1.8289,1.8314,1.8324,1.8204,1.8204,1.8204,1.8203,0,1.8032,1.8063,1.8093,1.8115,1.8131,1.8168,1.8163,1.8181,1.8171,1.817,1.8212,1.8221,1.8245,1.8257,1.8248,1.8307,1.8296,1.8276,1.8243,1.8303,1.8326,1.8335,1.8208,1.8207,1.8207,1.8206,0,0,1.8136,1.8149,1.816,1.8169,1.8183,1.8206,1.8241,1.8264,1.828,1.8295,1.8323,1.836,1.8341,1.8354,1.8345,1.837,1.8428,1.8347,1.8347,1.8361,1.8492,1.8507,1.8519,1.8417,1.8419,1.842,1.8491,0,1.8209,1.827,1.8261,1.8319,1.8346,1.8322,1.8352,1.8364,1.8364,1.8386,1.8386,1.8412,1.8385,1.8392,1.8415,1.8416,1.8454,1.8411,1.8442,1.8444,1.844,1.8531,1.8547,1.8614,1.85,1.8501,1.8503,0,1.8304,1.8322,1.8383,1.8391,1.8402,1.843,1.8449,1.8471,1.8483,1.8481,1.8494,1.8481,1.8514,1.848,1.8525,1.8496,1.8508,1.851,1.8512,1.8515,1.8477,1.8536,1.8635,1.8645,1.8517,1.8516,1.8515,0,1.8373,1.8412,1.8453,1.8462,1.8472,1.8491,1.8497,1.8506,1.852,1.8537,1.8546,1.8567,1.8578,1.8594,1.8586,1.8562,1.8632,1.8598,1.8631,1.8631,1.8648,1.8647,1.875,1.8655,1.8655,1.8655,1.8655,0,1.8456,1.8494,1.8484,1.8509,1.8551,1.8539,1.858,1.8582,1.859,1.8615,1.8595,1.8619,1.8607,1.8629,1.8623,1.8661,1.8666,1.8665,1.8663,1.8667,1.8667,1.8675,1.867,1.8658,1.8657,1.8657,1.8656,0,1.854,1.8535,1.8578,1.8584,1.8586,1.8616,1.862,1.8643,1.8641,1.8672,1.8679,1.8675,1.87,1.8694,1.8721,1.8717,1.8764,1.8756,1.8761,1.8759,1.8792,1.8789,1.8904,1.8918,1.8815,1.8816,1.8817,0,1.8594,1.8623,1.8631,1.8646,1.8652,1.8677,1.8691,1.8679,1.8694,1.8708,1.8729,1.8752,1.8771,1.8811,1.8811,1.8831,1.8823,1.8862,1.8826,1.8829,1.8823,1.8822,1.8824,1.8869,1.8871,1.8872,1.8872,0,1.869,1.8685,1.8706,1.8726,1.8742,1.8757,1.877,1.8783,1.8773,1.879,1.8815,1.8829,1.8856,1.8879,1.8897,1.8902,1.8885,1.8883,1.8892,1.8897,1.8898,1.8897,1.878,1.8881,1.888,1.888,1.8879,1.8879,1.876,1.8784,1.8793,1.8816,1.8824,1.8836,1.8858,1.8857,1.8878,1.8899,1.8891,1.8919,1.8928,1.8951,1.8958,1.8979,1.8964,1.8977,1.898,1.8984,1.8988,1.8894,1.8982,1.8982,1.8982,1.8982,1.8981,0,1.8855,1.8859,1.888,1.8898,1.8916,1.8898,1.8911,1.8927,1.8952,1.8962,1.898,1.9008,1.9029,1.903,1.9049,1.9066,1.9059,1.9072,1.9071,1.9072,1.9,1.899,1.9077,1.9077,1.9077,1.9077,1.9077,1.9077,1.8906,1.8944,1.8941,1.8982,1.8986,1.9014,1.9022,1.9033,1.904,1.9072,1.909,1.909,1.9095,1.9115,1.9133,1.9133,1.9141,1.9157,1.9153,1.9087,1.9077,1.9068,1.9059,1.9159,1.9159,1.9223,1.9224,1.9224]}]]